Powrót do katalogu

STARLINK-5376

AktywnyŁącznośćVLEO
NORAD 56142·PAYLOAD·🇺🇸 United States

Wystrzelony Mar 29, 2023 z Cape Canaveral Space Force Station

Loading…

Następne Przeloty (najbliższe 24 godziny)

TLE

ŚwieżeSource: CelesTrak SupGP

Epoka: Sep 14, 2026, 22:25 UTC

1 56142C 23046BB  26257.93451389 -.00035763  00000+0 -12954-2 0  2572
2 56142  43.0021 157.9237 0001516 270.1804 186.3641 15.27593596    11

Śledź STARLINK-5376 w czasie rzeczywistym z AllMySat

Download on the App Store